| time (UTC) | temp F | wind direction | speed knots | gust knots | rain 1hr in | rain 24hr in | rain mn in | humidity % | barometer mb |
| 20260503021921 | 39 | 29 | 7.0 | 7.8 | 0.00 | 0.01 | 0.01 | 69 | 1013.8 |
| 20260503020921 | 40 | 33 | 6.1 | 13.0 | 0.00 | 0.01 | 0.01 | 67 | 1013.6 |
| 20260503015921 | 40 | 22 | 3.5 | 5.2 | 0.00 | 0.01 | 0.01 | 65 | 1013.5 |
| 20260503014920 | 40 | 8 | 3.5 | 5.2 | 0.00 | 0.01 | 0.01 | 65 | 1013.2 |
| 20260503013915 | 41 | 20 | 3.5 | 7.0 | 0.00 | 0.01 | 0.01 | 64 | 1013.4 |
| 20260503012915 | 41 | 344 | 5.2 | 7.0 | 0.00 | 0.01 | 0.01 | 62 | 1013.3 |
| 20260503011915 | 41 | 3 | 5.2 | 7.0 | 0.00 | 0.01 | 0.01 | 62 | 1013.1 |
| 20260503010915 | 41 | 1 | 3.5 | 6.1 | 0.00 | 0.01 | 0.01 | 65 | 1013.3 |
| 20260503005914 | 41 | 12 | 3.5 | 7.0 | 0.00 | 0.01 | 0.01 | 63 | 1013.0 |
| 20260503004914 | 41 | 44 | 3.5 | 5.2 | 0.00 | 0.01 | 0.01 | 64 | 1013.1 |
| 20260503003909 | 41 | 354 | 2.6 | 7.0 | 0.00 | 0.01 | 0.01 | 65 | 1012.7 |
| 20260503002908 | 41 | 32 | 2.6 | 3.5 | 0.00 | 0.01 | 0.01 | 68 | 1012.7 |
| 20260503001908 | 41 | 23 | 1.7 | 3.5 | 0.00 | 0.01 | 0.01 | 66 | 1012.8 |
| 20260503000902 | 41 | 0 | 1.7 | 4.3 | 0.00 | 0.01 | 0.01 | 66 | 1012.7 |
| 20260502235902 | 42 | 16 | 2.6 | 4.3 | 0.00 | 0.01 | 0.01 | 66 | 1012.6 |
| 20260502234902 | 42 | 55 | 0.9 | 3.5 | 0.00 | 0.01 | 0.01 | 64 | 1012.7 |
| 20260502233901 | 42 | 60 | 1.7 | 2.6 | 0.00 | 0.01 | 0.01 | 67 | 1012.8 |
| 20260502232900 | 42 | 28 | 2.6 | 2.6 | 0.00 | 0.01 | 0.01 | 65 | 1012.8 |
| 20260502231859 | 42 | 21 | 1.7 | 4.3 | 0.00 | 0.01 | 0.01 | 63 | 1012.6 |
| 20260502230855 | 43 | 136 | 0.9 | 3.5 | 0.00 | 0.01 | 0.01 | 65 | 1012.7 |
| 20260502225855 | 43 | 28 | 2.6 | 3.5 | 0.00 | 0.01 | 0.01 | 62 | 1012.7 |
| 20260502224855 | 43 | 243 | 1.7 | 3.5 | 0.00 | 0.01 | 0.01 | 63 | 1012.6 |
| 20260502223854 | 43 | 71 | 0.0 | 2.6 | 0.00 | 0.01 | 0.01 | 64 | 1012.6 |
| 20260502222849 | 44 | 14 | 0.0 | 3.5 | 0.00 | 0.01 | 0.01 | 63 | 1012.3 |
| 20260502221848 | 43 | 357 | 5.2 | 7.0 | 0.00 | 0.01 | 0.01 | 62 | 1012.6 |
| 20260502220848 | 44 | 111 | 0.9 | 2.6 | 0.00 | 0.01 | 0.01 | 64 | 1012.6 |
| 20260502215846 | 44 | 318 | 1.7 | 7.0 | 0.00 | 0.01 | 0.01 | 62 | 1012.5 |
| 20260502214846 | 44 | 46 | 2.6 | 2.6 | 0.00 | 0.01 | 0.01 | 61 | 1012.4 |
| 20260502213845 | 44 | 316 | 3.5 | 6.1 | 0.00 | 0.01 | 0.01 | 59 | 1012.1 |
| 20260502212841 | 44 | 38 | 3.5 | 3.5 | 0.00 | 0.01 | 0.01 | 58 | 1012.0 |
| 20260502211842 | 45 | 359 | 4.3 | 4.3 | 0.00 | 0.01 | 0.01 | 55 | 1012.0 |
| 20260502210840 | 45 | 347 | 0.9 | 1.7 | 0.00 | 0.01 | 0.01 | 56 | 1011.8 |
| 20260502205840 | 45 | 50 | 3.5 | 6.1 | 0.00 | 0.01 | 0.01 | 57 | 1011.9 |
| 20260502204839 | 45 | 2 | 1.7 | 7.8 | 0.00 | 0.01 | 0.01 | 57 | 1012.0 |
| 20260502203834 | 45 | 311 | 0.9 | 5.2 | 0.00 | 0.01 | 0.01 | 58 | 1011.8 |
| 20260502202831 | 45 | 168 | 1.7 | 2.6 | 0.00 | 0.01 | 0.01 | 54 | 1012.1 |
| 20260502201827 | 46 | 31 | 3.5 | 4.3 | 0.00 | 0.01 | 0.01 | 57 | 1012.1 |
| 20260502200825 | 45 | 193 | 5.2 | 5.2 | 0.00 | 0.01 | 0.01 | 54 | 1012.4 |
| 20260502195825 | 46 | 109 | 2.6 | 3.5 | 0.00 | 0.01 | 0.01 | 53 | 1012.5 |
| 20260502194824 | 46 | 222 | 0.9 | 2.6 | 0.00 | 0.01 | 0.01 | 53 | 1012.7 |
| 20260502193822 | 46 | 266 | 2.6 | 3.5 | 0.00 | 0.01 | 0.01 | 53 | 1012.8 |
| 20260502192820 | 46 | 15 | 4.3 | 7.0 | 0.00 | 0.01 | 0.01 | 49 | 1012.8 |
| 20260502191815 | 45 | 189 | 1.7 | 4.3 | 0.00 | 0.01 | 0.01 | 53 | 1012.9 |
| 20260502190810 | 46 | 319 | 2.6 | 4.3 | 0.00 | 0.01 | 0.01 | 49 | 1012.9 |
| 20260502185808 | 47 | 32 | 4.3 | 4.3 | 0.00 | 0.01 | 0.01 | 59 | 1013.0 |
| 20260502184807 | 46 | 22 | 4.3 | 5.2 | 0.00 | 0.01 | 0.01 | 52 | 1013.1 |
| 20260502183806 | 46 | 242 | 1.7 | 3.5 | 0.00 | 0.01 | 0.01 | 52 | 1013.4 |
| 20260502182803 | 46 | 324 | 2.6 | 5.2 | 0.00 | 0.01 | 0.01 | 55 | 1013.1 |
| 20260502181801 | 46 | 110 | 1.7 | 5.2 | 0.00 | 0.01 | 0.01 | 50 | 1013.3 |
| 20260502180758 | 48 | 273 | 1.7 | 7.0 | 0.00 | 0.01 | 0.01 | 46 | 1012.9 |
| 20260502163743 | 46 | 49 | 3.5 | 8.7 | 0.00 | 0.01 | 0.01 | 49 | 1013.1 |
| 20260502162743 | 48 | 59 | 2.6 | 8.7 | 0.00 | 0.01 | 0.01 | 49 | 1013.3 |
| 20260502161743 | 46 | 18 | 2.6 | 10.4 | 0.00 | 0.01 | 0.01 | 50 | 1013.3 |
| 20260502160743 | 46 | 167 | 1.7 | 7.0 | 0.00 | 0.01 | 0.01 | 51 | 1013.3 |
| 20260502151727 | 43 | 60 | 4.3 | 4.3 | 0.00 | 0.01 | 0.01 | 59 | 1013.4 |
| 20260502150721 | 42 | 11 | 2.6 | 5.2 | 0.00 | 0.01 | 0.01 | 58 | 1013.3 |
| 20260502130704 | 42 | 12 | 3.5 | 4.3 | 0.00 | 0.01 | 0.01 | 71 | 1014.0 |
| 20260502123653 | 41 | 37 | 1.7 | 7.8 | 0.00 | 0.01 | 0.01 | 78 | 1014.0 |
| 20260502122652 | 41 | 49 | 0.0 | 4.3 | 0.00 | 0.01 | 0.01 | 78 | 1013.8 |
| 20260502121647 | 40 | 22 | 0.9 | 5.2 | 0.00 | 0.01 | 0.01 | 83 | 1013.8 |
| 20260502120646 | 40 | 16 | 1.7 | 7.8 | 0.00 | 0.01 | 0.01 | 82 | 1014.0 |
| 20260502115641 | 39 | 57 | 2.6 | 4.3 | 0.00 | 0.01 | 0.01 | 82 | 1013.8 |
| 20260502114639 | 39 | 42 | 1.7 | 3.5 | 0.00 | 0.01 | 0.01 | 84 | 1013.7 |
| 20260502113634 | 39 | 56 | 3.5 | 5.2 | 0.00 | 0.01 | 0.01 | 85 | 1013.7 |
| 20260502112630 | 38 | 51 | 1.7 | 5.2 | 0.00 | 0.01 | 0.01 | 84 | 1013.8 |
| 20260502111630 | 38 | 54 | 6.1 | 7.0 | 0.00 | 0.01 | 0.01 | 83 | 1013.8 |
| 20260502110625 | 38 | 73 | 3.5 | 5.2 | 0.00 | 0.01 | 0.01 | 89 | 1013.6 |
| 20260502105620 | 38 | 88 | 4.3 | 5.2 | 0.00 | 0.01 | 0.01 | 91 | 1013.6 |
| 20260502104620 | 35 | 70 | 4.3 | 4.3 | 0.00 | 0.01 | 0.01 | 93 | 1013.3 |
| 20260502103615 | 35 | 64 | 3.5 | 5.2 | 0.00 | 0.01 | 0.01 | 95 | 1013.4 |
| 20260502102615 | 35 | 54 | 3.5 | 7.8 | 0.00 | 0.01 | 0.01 | 96 | 1013.1 |
| 20260502101615 | 35 | 54 | 6.1 | 7.8 | 0.00 | 0.01 | 0.01 | 98 | 1013.5 |
| 20260502100612 | 35 | 70 | 3.5 | 5.2 | 0.00 | 0.01 | 0.01 | 98 | 1013.3 |
| 20260502090557 | 36 | 64 | 3.5 | 5.2 | 0.00 | 0.01 | 0.01 | 97 | 1012.6 |
| 20260502071533 | 36 | 18 | 3.5 | 5.2 | 0.00 | 0.01 | 0.01 | 95 | 1012.6 |
| 20260502070529 | 36 | 312 | 3.5 | 13.0 | 0.02 | 0.01 | 0.01 | 96 | 1012.4 |
| 20260502065525 | 38 | 348 | 3.5 | 9.6 | 0.02 | 0.00 | 0.00 | 99 | 1012.1 |
| 20260502064521 | 39 | 48 | 2.6 | 5.2 | 0.00 | 0.00 | 0.00 | 99 | 1011.9 |
| 20260502063521 | 39 | 252 | 1.7 | 3.5 | 0.00 | 0.00 | 0.00 | 99 | 1012.3 |
| 20260502062521 | 39 | 62 | 4.3 | 5.2 | 0.00 | 0.00 | 0.00 | 99 | 1011.8 |
| 20260502061517 | 39 | 57 | 2.6 | 5.2 | 0.00 | 0.00 | 0.00 | 99 | 1012.1 |
| 20260502060515 | 39 | 22 | 5.2 | 5.2 | 0.00 | 0.00 | 0.00 | 99 | 1012.0 |
| 20260502055515 | 39 | 36 | 5.2 | 6.1 | 0.00 | 0.00 | 0.00 | 99 | 1011.9 |
| 20260502054513 | 39 | 65 | 3.5 | 5.2 | 0.00 | 0.00 | 0.00 | 99 | 1012.1 |
| 20260502053512 | 39 | 44 | 2.6 | 5.2 | 0.00 | 0.00 | 0.00 | 99 | 1012.4 |
| 20260502052508 | 40 | 21 | 1.7 | 4.3 | 0.00 | 0.00 | 0.00 | 99 | 1012.4 |
| 20260502051504 | 40 | 246 | 1.7 | 2.6 | 0.00 | 0.00 | 0.00 | 99 | 1012.3 |
| 20260502050503 | 41 | 53 | 2.6 | 3.5 | 0.00 | 0.00 | 0.00 | 99 | 1012.0 |
| 20260502045503 | 41 | 61 | 2.6 | 4.3 | 0.00 | 0.00 | 0.00 | 99 | 1012.0 |
| 20260502044502 | 41 | 60 | 1.7 | 3.5 | 0.00 | 0.00 | 0.00 | 99 | 1012.3 |
| 20260502043456 | 41 | 81 | 1.7 | 1.7 | 0.00 | 0.00 | 0.00 | 99 | 1012.1 |
| 20260502042453 | 40 | 91 | 1.7 | 2.6 | 0.00 | 0.00 | 0.00 | 99 | 1012.1 |
| 20260502041448 | 40 | 91 | 0.0 | 2.6 | 0.00 | 0.00 | 0.00 | 99 | 1012.0 |
| 20260502040447 | 41 | 88 | 1.7 | 2.6 | 0.00 | 0.00 | 0.00 | 99 | 1012.0 |
| 20260502035445 | 41 | 61 | 1.7 | 2.6 | 0.00 | 0.15 | 0.15 | 99 | 1012.0 |
| 20260502034442 | 41 | 74 | 1.7 | 2.6 | 0.00 | 0.15 | 0.15 | 99 | 1012.1 |
| 20260502033443 | 41 | 80 | 1.7 | 2.6 | 0.00 | 0.15 | 0.15 | 99 | 1011.9 |
| 20260502032441 | 41 | 63 | 0.9 | 1.7 | 0.00 | 0.15 | 0.15 | 99 | 1011.9 |
| 20260502031437 | 41 | 174 | 0.0 | 1.7 | 0.02 | 0.15 | 0.15 | 99 | 1012.1 |
| 20260502030433 | 41 | 7 | 1.7 | 2.6 | 0.00 | 0.15 | 0.15 | 99 | 1011.8 |
| 20260502025433 | 42 | 49 | 0.0 | 1.7 | 0.00 | 0.15 | 0.15 | 99 | 1011.9 |
| 20260502024429 | 42 | 19 | 0.9 | 1.7 | 0.02 | 0.15 | 0.15 | 99 | 1012.1 |
| 20260502023424 | 42 | 170 | 1.7 | 2.6 | 0.00 | 0.15 | 0.15 | 99 | 1012.1 |